[[{"header":{"parameterUnit":"m.s-1","parameterCategory":1,"la1":30.2991,"la2":30.254,"lo1":-89.0895,"lo2":-89.0444,"dy":0.0017,"dx":0.0017,"nx":28,"ny":28,"refTime":"2024-08-07T09:00:00:Z","depth":0,"parameterNumber":2,"parameterNumberName":"U-component_of_WINDS"},"data":[0,0,0,0,0,0,0,0,0,0,0,0,0,0,0,0,0,0,0,0,0,0,0,0,0,0,0,0,0,0,0,0,0,0,0,0,0,0,0,0,0,0,0,0,0,0,0,0,0,0,0,0,0,0,0,0,0,0,2.8189,2.8189,0,2.8224,2.8224,2.8224,2.814,2.8137,2.8135,2.8132,2.8169,2.8172,2.8176,0,0,0,0,0,0,0,0,0,0,0,0,0,2.8049,2.8052,2.8189,2.8189,2.8189,2.8224,2.8224,2.8225,2.8141,2.8137,2.8134,2.8131,2.8168,2.8172,2.8176,0,0,0,0,0,0,0,0,0,0,0,0,0,2.81,2.8053,2.8188,2.8152,2.8149,2.8223,2.8224,2.8225,2.8141,2.8137,2.8133,2.8129,2.8166,2.8171,2.8176,2.8289,0,0,2.8192,2.8195,0,0,0,0,0,0,0,0,2.8097,2.8105,2.8157,2.8154,2.8151,2.8173,2.8188,2.8246,2.8142,2.8144,2.8132,2.8128,2.8174,2.8178,2.8193,2.829,2.8292,2.8193,2.8196,2.8198,2.82,0,0,0,0,0,0,0,2.8093,2.8103,2.8202,2.8157,2.8154,2.8133,2.8136,2.8199,2.8181,2.8144,2.8138,2.8143,2.8171,2.8188,2.8194,2.8292,2.8193,2.8197,2.82,2.8202,2.8484,2.8488,0,0,0,0,0,0,2.8095,2.81,2.8201,2.8203,2.8114,2.8139,2.8142,2.817,2.818,2.8178,2.8146,2.8139,2.8182,2.8188,2.8194,2.8328,2.8198,2.8203,2.8206,2.848,2.8485,2.849,0,0,0,0,0,0,2.8092,2.8104,2.82,2.815,2.8161,2.8146,2.8178,2.8173,2.819,2.8182,2.8178,2.8167,2.8179,2.8187,2.8266,2.8328,2.8205,2.821,2.8475,2.8481,2.8487,2.8594,0,0,0,0,0,0,2.8088,2.8104,2.8147,2.8152,2.8164,2.8271,2.8182,2.8177,2.8199,2.819,2.8201,2.8199,2.8176,2.8259,2.8271,2.8333,2.8214,2.8469,2.8478,2.8485,2.8585,2.8604,2.862,0,0,0,0,0,2.8084,2.8175,2.8149,2.8162,2.8217,2.8275,2.8282,2.8254,2.8205,2.8248,2.8242,2.8198,2.8318,2.8268,2.8281,2.8345,2.8465,2.8475,2.8485,2.8578,2.86,2.8619,0,0,0,0,0,0,2.8178,2.8175,2.8146,2.8242,2.826,2.8261,2.8314,2.8279,2.831,2.83,2.8264,2.8267,2.8353,2.8356,2.83,2.8454,2.8383,2.8396,2.845,2.8471,2.8488,2.8486,2.8218,0,0,0,0,0,2.821,2.8257,2.8252,2.8337,2.8347,2.8329,2.8354,2.8331,2.8347,2.8354,2.8354,2.8372,2.8413,2.8442,2.848,2.8584,2.8586,2.8635,2.8652,2.8666,2.8679,2.8735,2.8757,2.8522,2.8522,2.8522,0,0,2.8277,2.8281,2.8313,2.8357,2.8367,2.8417,2.8336,2.8392,2.843,2.8362,2.8437,2.8438,2.8455,2.8548,2.8589,2.8553,2.8743,2.8679,2.869,2.8695,2.8747,2.877,2.879,2.8529,2.8527,2.8526,0,0,2.8424,2.8432,2.8504,2.8516,2.8533,2.852,2.8537,2.8544,2.8542,2.8616,2.8567,2.861,2.8683,2.8697,2.8714,2.8867,2.8828,2.888,2.897,2.9026,2.9044,2.9061,2.9117,2.9137,2.8891,2.8892,2.8892,0,2.8505,2.8579,2.8546,2.8606,2.8627,2.8567,2.8641,2.8654,2.8683,2.8699,2.8658,2.8748,2.8755,2.8851,2.8888,2.8903,2.8923,2.8879,2.9044,2.906,2.9075,2.9128,2.9149,2.8898,2.8897,2.8897,2.8896,0,2.8678,2.873,2.8786,2.8815,2.8842,2.8909,2.8886,2.8917,2.8891,2.8883,2.896,2.8966,2.9005,2.9025,2.9,2.9118,2.9095,2.905,2.8979,2.9104,2.9154,2.9173,2.8907,2.8905,2.8903,2.8901,0,0,2.8888,2.8897,2.8919,2.8932,2.8945,2.8985,2.9048,2.9086,2.9114,2.9135,2.9188,2.925,2.9209,2.9228,2.9204,2.9253,2.9375,2.9201,2.9201,2.9235,2.9506,2.9541,2.9565,2.9348,2.9352,2.9355,2.9505,0,2.9035,2.9145,2.9117,2.9226,2.9274,2.9218,2.9273,2.9288,2.9281,2.9321,2.9313,2.9358,2.9299,2.931,2.9356,2.935,2.9429,2.9339,2.9398,2.9401,2.9398,2.9591,2.9629,2.977,2.9524,2.9527,2.9529,0,2.9223,2.9251,2.9365,2.9371,2.939,2.9441,2.9473,2.9511,2.9526,2.9518,2.9539,2.9506,2.9569,2.9495,2.9582,2.9521,2.9543,2.9544,2.9549,2.9556,2.9474,2.9604,2.9815,2.9837,2.9559,2.9556,2.9554,0,2.9367,2.9433,2.951,2.9523,2.9531,2.9568,2.9573,2.9584,2.9609,2.9637,2.9652,2.9687,2.9707,2.9734,2.9711,2.9659,2.9802,2.9726,2.9798,2.9799,2.9833,2.9832,3.0052,2.9844,2.9844,2.9843,2.9843,0,2.9536,2.9608,2.9575,2.9623,2.9703,2.9669,2.9749,2.9747,2.9757,2.9804,2.9757,2.9801,2.9767,2.9809,2.9791,2.9866,2.9875,2.9871,2.9866,2.9876,2.9877,2.9892,2.9883,2.9849,2.9848,2.9846,2.9845,0,2.9712,2.9692,2.9773,2.9774,2.9776,2.9835,2.9836,2.988,2.9869,2.9929,2.9941,2.9924,2.9971,2.995,2.9999,2.9987,3.0084,3.0065,3.008,3.0076,3.0149,3.0144,3.0389,3.042,3.019,3.0192,3.0194,0,2.9822,2.9877,2.9883,2.9911,2.992,2.9965,2.9989,2.9957,2.9985,3.0006,3.0048,3.0091,3.0123,3.0201,3.0193,3.0231,3.0213,3.0296,3.0218,3.0228,3.0217,3.0215,3.0221,3.0313,3.0316,3.0318,3.0319,0,3.0021,3.0008,3.0045,3.008,3.011,3.0135,3.0156,3.0182,3.0151,3.0184,3.0231,3.0257,3.0306,3.035,3.0382,3.0387,3.035,3.0344,3.0363,3.0376,3.0383,3.0382,3.0125,3.0339,3.0337,3.0335,3.0334,3.0334,3.0169,3.0215,3.0227,3.027,3.0282,3.0303,3.0345,3.0339,3.0378,3.0416,3.0394,3.045,3.0463,3.0503,3.0513,3.0556,3.0524,3.0551,3.0558,3.0566,3.0577,3.0374,3.0562,3.0561,3.0561,3.056,3.056,0,3.0367,3.0371,3.0411,3.0442,3.0476,3.0435,3.0456,3.0488,3.0537,3.0552,3.0585,3.064,3.0681,3.0677,3.0715,3.075,3.0734,3.0761,3.076,3.0762,3.0603,3.0583,3.0774,3.0774,3.0774,3.0774,3.0774,3.0774,3.0474,3.055,3.0539,3.0621,3.0624,3.0678,3.0694,3.0713,3.0725,3.0788,3.0823,3.0819,3.0827,3.0865,3.0901,3.0898,3.0916,3.0951,3.0942,3.0794,3.0773,3.0753,3.0735,3.0954,3.0954,3.1098,3.1099,3.11]},{"header":{"parameterUnit":"m.s-1","parameterCategory":1,"la1":30.2991,"la2":30.254,"lo1":-89.0895,"lo2":-89.0444,"dy":0.0017,"dx":0.0017,"nx":28,"ny":28,"refTime":"2024-08-07T09:00:00:Z","depth":0,"parameterNumber":3,"parameterNumberName":"V-component_of_WINDS"},"data":[0,0,0,0,0,0,0,0,0,0,0,0,0,0,0,0,0,0,0,0,0,0,0,0,0,0,0,0,0,0,0,0,0,0,0,0,0,0,0,0,0,0,0,0,0,0,0,0,0,0,0,0,0,0,0,0,0,0,-1.6369,-1.6371,0,-1.655,-1.6553,-1.6555,-1.6634,-1.6633,-1.6633,-1.6633,-1.6822,-1.6827,-1.6832,0,0,0,0,0,0,0,0,0,0,0,0,0,-1.6095,-1.6099,-1.6369,-1.6371,-1.6374,-1.655,-1.6553,-1.6555,-1.6634,-1.6633,-1.6633,-1.6633,-1.682,-1.6826,-1.6833,0,0,0,0,0,0,0,0,0,0,0,0,0,-1.6239,-1.6101,-1.6369,-1.6434,-1.6442,-1.655,-1.6553,-1.6556,-1.6634,-1.6633,-1.6633,-1.6632,-1.6818,-1.6826,-1.6834,-1.6891,0,0,-1.6858,-1.6861,0,0,0,0,0,0,0,0,-1.623,-1.6249,-1.6422,-1.643,-1.6438,-1.6569,-1.6525,-1.6668,-1.6634,-1.6561,-1.6633,-1.6632,-1.6738,-1.6753,-1.6788,-1.69,-1.6908,-1.6859,-1.6863,-1.6867,-1.6869,0,0,0,0,0,0,0,-1.622,-1.6241,-1.6441,-1.6425,-1.6435,-1.6456,-1.6475,-1.6553,-1.665,-1.6567,-1.6573,-1.6594,-1.6743,-1.678,-1.6793,-1.6911,-1.6858,-1.6865,-1.687,-1.6873,-1.7081,-1.7082,0,0,0,0,0,0,-1.6199,-1.6233,-1.6435,-1.6446,-1.6331,-1.6461,-1.6483,-1.6527,-1.6649,-1.6667,-1.6594,-1.6597,-1.6767,-1.6783,-1.68,-1.6876,-1.6867,-1.6874,-1.6879,-1.7081,-1.7082,-1.7082,0,0,0,0,0,0,-1.6193,-1.6217,-1.6428,-1.6341,-1.637,-1.6466,-1.6515,-1.6531,-1.6569,-1.6669,-1.6687,-1.6614,-1.6767,-1.6789,-1.6868,-1.6884,-1.6878,-1.6885,-1.708,-1.7081,-1.7082,-1.7028,0,0,0,0,0,0,-1.6185,-1.6214,-1.6236,-1.6341,-1.6374,-1.6491,-1.6516,-1.6535,-1.6582,-1.6587,-1.6693,-1.671,-1.6768,-1.6856,-1.6876,-1.6894,-1.6891,-1.7079,-1.708,-1.7082,-1.7029,-1.7027,-1.7026,0,0,0,0,0,-1.6175,-1.6214,-1.6236,-1.626,-1.6403,-1.6492,-1.6511,-1.6576,-1.6583,-1.6606,-1.6671,-1.6707,-1.6879,-1.6863,-1.6887,-1.6908,-1.7078,-1.708,-1.7082,-1.703,-1.7027,-1.7026,0,0,0,0,0,0,-1.6108,-1.6229,-1.6255,-1.6329,-1.64,-1.6505,-1.6537,-1.6572,-1.6643,-1.6646,-1.6725,-1.6748,-1.6821,-1.6873,-1.6853,-1.6971,-1.6982,-1.6988,-1.6934,-1.6933,-1.6931,-1.6917,-1.6898,0,0,0,0,0,-1.6102,-1.6163,-1.6266,-1.6321,-1.6355,-1.644,-1.6481,-1.6525,-1.6602,-1.6633,-1.6703,-1.6778,-1.6849,-1.6894,-1.6965,-1.7037,-1.7062,-1.7063,-1.7062,-1.706,-1.7065,-1.7108,-1.711,-1.7088,-1.7088,-1.7088,0,0,-1.609,-1.6164,-1.6198,-1.631,-1.637,-1.6432,-1.6464,-1.6529,-1.6577,-1.6643,-1.6722,-1.6776,-1.6865,-1.6941,-1.6978,-1.6986,-1.7076,-1.7062,-1.706,-1.7066,-1.711,-1.7112,-1.7114,-1.7089,-1.7089,-1.7089,0,0,-1.6101,-1.6162,-1.6215,-1.6275,-1.6365,-1.6421,-1.6433,-1.6534,-1.6573,-1.6653,-1.6704,-1.6763,-1.6883,-1.6945,-1.6991,-1.7026,-1.7062,-1.7047,-1.7039,-1.708,-1.7082,-1.7084,-1.7097,-1.71,-1.7051,-1.7051,-1.7051,0,-1.6075,-1.617,-1.6238,-1.6301,-1.6349,-1.6411,-1.6466,-1.6521,-1.663,-1.6663,-1.667,-1.6823,-1.6887,-1.6979,-1.6987,-1.7023,-1.7041,-1.7035,-1.7076,-1.7078,-1.7081,-1.7095,-1.7099,-1.7049,-1.7049,-1.7049,-1.705,0,-1.6135,-1.62,-1.6233,-1.6335,-1.6387,-1.6446,-1.6524,-1.6569,-1.6609,-1.6665,-1.6747,-1.6825,-1.6914,-1.6939,-1.6979,-1.7037,-1.7039,-1.706,-1.7073,-1.708,-1.7094,-1.7099,-1.7045,-1.7046,-1.7047,-1.7048,0,0,-1.6108,-1.6248,-1.6258,-1.6306,-1.641,-1.6463,-1.6525,-1.661,-1.6648,-1.6721,-1.6776,-1.6877,-1.6897,-1.695,-1.6998,-1.7034,-1.7057,-1.7051,-1.7055,-1.705,-1.7127,-1.7111,-1.7115,-1.7082,-1.7083,-1.7084,-1.712,0,-1.6133,-1.6245,-1.6308,-1.6395,-1.6457,-1.6517,-1.6571,-1.6642,-1.6696,-1.6758,-1.6818,-1.6888,-1.6909,-1.6942,-1.698,-1.7046,-1.7074,-1.7045,-1.7135,-1.7137,-1.711,-1.7123,-1.7105,-1.7135,-1.7126,-1.7127,-1.7128,0,-1.6177,-1.6248,-1.634,-1.6438,-1.6466,-1.6513,-1.6597,-1.6655,-1.6737,-1.6774,-1.6834,-1.6881,-1.6951,-1.6958,-1.7055,-1.7034,-1.7075,-1.7113,-1.7116,-1.7127,-1.7132,-1.7134,-1.7146,-1.7151,-1.7137,-1.7136,-1.7135,0,-1.6148,-1.6267,-1.6338,-1.6377,-1.6493,-1.6525,-1.6575,-1.6657,-1.6704,-1.6778,-1.681,-1.6891,-1.6936,-1.6999,-1.7068,-1.7066,-1.7159,-1.7172,-1.7193,-1.7191,-1.7209,-1.7207,-1.7228,-1.7235,-1.7235,-1.7235,-1.7235,0,-1.6169,-1.6223,-1.6327,-1.637,-1.6433,-1.6507,-1.6567,-1.6623,-1.6695,-1.6751,-1.6809,-1.6861,-1.6949,-1.7012,-1.7067,-1.714,-1.716,-1.7193,-1.7207,-1.7188,-1.7183,-1.7215,-1.7215,-1.7236,-1.7236,-1.7236,-1.7236,0,-1.6148,-1.6219,-1.6301,-1.6404,-1.6431,-1.6473,-1.6562,-1.6607,-1.6664,-1.6735,-1.6756,-1.6846,-1.6924,-1.6999,-1.7104,-1.7141,-1.7214,-1.7232,-1.7185,-1.7193,-1.721,-1.7207,-1.7252,-1.7262,-1.7262,-1.7262,-1.7261,0,-1.6157,-1.62,-1.6307,-1.6348,-1.6397,-1.6463,-1.6511,-1.6586,-1.6634,-1.6731,-1.6765,-1.6847,-1.6916,-1.7038,-1.7114,-1.7195,-1.7216,-1.7226,-1.7229,-1.7208,-1.7217,-1.7213,-1.7218,-1.7224,-1.7224,-1.7224,-1.7223,0,-1.6165,-1.6198,-1.6265,-1.6345,-1.6401,-1.6468,-1.6537,-1.6568,-1.6656,-1.6708,-1.6787,-1.6841,-1.6947,-1.7028,-1.7118,-1.7172,-1.7213,-1.7222,-1.7231,-1.7212,-1.7183,-1.72,-1.718,-1.7221,-1.7221,-1.7221,-1.7221,-1.7221,-1.616,-1.6201,-1.6283,-1.6356,-1.6415,-1.6478,-1.6526,-1.6589,-1.6656,-1.6747,-1.6788,-1.6868,-1.6951,-1.7076,-1.7129,-1.7194,-1.7204,-1.7217,-1.7221,-1.7223,-1.7219,-1.7173,-1.7211,-1.7211,-1.7211,-1.7211,-1.7211,0,-1.6171,-1.6227,-1.6293,-1.6387,-1.6445,-1.6477,-1.6556,-1.6602,-1.6672,-1.6745,-1.6811,-1.6903,-1.6983,-1.7065,-1.7149,-1.7185,-1.7207,-1.7205,-1.7203,-1.7215,-1.7205,-1.7188,-1.7187,-1.7187,-1.7187,-1.7187,-1.7187,-1.7187,-1.6184,-1.6255,-1.6298,-1.64,-1.6456,-1.6534,-1.6576,-1.6635,-1.6694,-1.6793,-1.6859,-1.6911,-1.6989,-1.7079,-1.7154,-1.7176,-1.7205,-1.7198,-1.7226,-1.7214,-1.7216,-1.7217,-1.7202,-1.7204,-1.7204,-1.7231,-1.7231,-1.7231]}]]